FLOCK 3P-5 (41971 NORAD) Tracking and Keplerian Element Data

This shows tracking and keplerian element data for the satellite.

Feedback or suggestion? Click here.




ElementValue
Catalog41971
NameFLOCK 3P-5
Epoch Orbit17707
Epoch Day114.89025091
Epoch Year2020
RAAN183.8896
Inclination97.3679
Eccentricity0.0009357
Argument of Perigee121.6959
Mean Anonmoly238.5194
Mean Motion15.27507778
Decay Rate2.892E-05
L11 41971U 17008Z 20114.89025091 .00002892 00000-0 11010-3 0 9997
L22 41971 97.3679 183.8896 0009357 121.6959 238.5194 15.27507778177078



Live tracking and technical data element details for FLOCK 3P-5 (NORAD 41971). FLOCK 3P-5 can be tracked NOW for your location showing map with azimuth and elevation plus other details from your city location.







IsCatalogInMostPopularTable: catalog: 41971, numindb: 483
Update: records affected: 1



GetName: 41971 FLOCK 3P-5

Hit Count: updated at: Thu, 22 May 2025 03:01:28 GMT